DW4221 Weather Reports


time (UTC)temp
C
wind
direction
speed
KPH
gust
KPH
rain 1hr
cm
rain 24hr
cm
rain mn
cm
humidity
%
barometer
mb
20260507033056 1 0 0.0 8.0 0.00 0.00 0.00 73 1012.9
20260507031555 1 0 1.6 4.8 0.00 0.00 0.00 73 1013.1
20260507030052 1 0 0.0 4.8 0.00 0.00 0.00 73 1013.1
20260507024557 1 0 0.0 6.4 0.00 0.00 0.00 72 1013.1
20260507023051 1 0 0.0 9.7 0.00 0.00 0.00 71 1013.1
20260507021604 1 0 0.0 0.0 0.00 0.00 0.00 72 1013.2
20260507020108 2 0 0.0 4.8 0.00 0.00 0.00 71 1013.1
20260507014619 2 271 0.0 9.7 0.00 0.00 0.00 71 1013.0
20260507013056 2 290 0.0 6.4 0.00 0.00 0.00 70 1013.1
20260507011558 2 0 0.0 6.4 0.00 0.00 0.00 69 1013.0
20260507010055 2 209 0.0 8.0 0.00 0.00 0.00 69 1013.0
20260507004552 2 284 3.2 16.1 0.00 0.00 0.00 67 1013.0
20260507003054 2 216 1.6 11.3 0.00 0.00 0.00 67 1013.0
20260507001606 3 300 1.6 9.7 0.00 0.00 0.00 65 1013.0
20260507000123 3 275 3.2 12.9 0.00 0.00 0.00 64 1013.0
20260506234612 3 272 1.6 11.3 0.00 0.00 0.00 65 1013.0
20260506233053 3 267 1.6 8.0 0.00 0.00 0.00 65 1013.0
20260506231549 3 289 0.0 12.9 0.00 0.00 0.00 63 1013.2
20260506230103 3 285 1.6 11.3 0.00 0.00 0.00 60 1013.0
20260506224551 3 273 4.8 12.9 0.00 0.00 0.00 60 1013.0
20260506223051 3 0 1.6 14.5 0.00 0.00 0.00 59 1012.9
20260506221559 3 317 3.2 11.3 0.00 0.00 0.00 58 1013.1
20260506220052 4 0 1.6 12.9 0.00 0.00 0.00 59 1012.9
20260506214558 4 355 3.2 12.9 0.00 0.00 0.00 59 1013.1
20260506213059 3 298 4.8 20.9 0.00 0.00 0.00 59 1013.0
20260506211559 4 283 4.8 19.3 0.00 0.00 0.00 59 1013.0
20260506210055 4 229 3.2 17.7 0.00 0.00 0.00 57 1012.9
20260506204556 4 292 4.8 17.7 0.00 0.00 0.00 57 1013.0
20260506203054 5 209 3.2 20.9 0.00 0.00 0.00 58 1013.1
20260506201552 4 0 3.2 16.1 0.00 0.00 0.00 58 1013.2
20260506200056 5 279 1.6 11.3 0.00 0.00 0.00 58 1013.0
20260506194600 5 259 1.6 14.5 0.00 0.00 0.00 59 1013.0
20260506193057 4 283 6.4 22.5 0.00 0.00 0.00 58 1013.0
20260506191559 4 240 3.2 16.1 0.00 0.00 0.00 58 1013.0
20260506190055 4 295 4.8 14.5 0.00 0.00 0.00 58 1013.1
20260506184556 3 24 4.8 17.7 0.00 0.00 0.00 58 1013.0
20260506183102 3 38 3.2 20.9 0.00 0.00 0.00 58 1013.2
20260506181603 3 222 3.2 12.9 0.00 0.00 0.00 60 1013.2
20260506180059 3 304 4.8 12.9 0.00 0.00 0.00 59 1013.3
20260506174554 3 331 4.8 16.1 0.00 0.00 0.00 61 1013.3
20260506173119 2 269 3.2 12.9 0.00 0.00 0.00 66 1013.7
20260506171604 2 350 1.6 9.7 0.00 0.00 0.00 64 1013.7
20260506170104 2 261 4.8 16.1 0.00 0.00 0.00 66 1013.7
20260506164555 2 278 1.6 9.7 0.00 0.00 0.00 68 1014.0
20260506163056 2 21 1.6 11.3 0.00 0.00 0.00 68 1013.8
20260506161552 2 278 3.2 11.3 0.00 0.00 0.00 66 1013.9
20260506160055 2 221 1.6 16.1 0.00 0.00 0.00 65 1013.8
20260506154610 2 300 6.4 16.1 0.00 0.00 0.00 65 1013.8
20260506153051 1 256 3.2 12.9 0.00 0.00 0.00 67 1013.9
20260506151549 1 304 1.6 12.9 0.00 0.00 0.00 70 1013.8
20260506150051 1 281 3.2 12.9 0.00 0.00 0.00 68 1013.7
20260506144555 1 232 3.2 22.5 0.00 0.00 0.00 71 1013.7
20260506143051 1 303 4.8 17.7 0.00 0.00 0.00 70 1013.7
20260506141549 1 315 3.2 12.9 0.00 0.00 0.00 71 1013.8
20260506140054 0 209 3.2 16.1 0.00 0.00 0.00 71 1013.9
20260506134552 0 30 3.2 12.9 0.00 0.00 0.00 73 1013.7
20260506133102 0 226 1.6 16.1 0.00 0.00 0.00 74 1013.8
20260506131552 0 44 1.6 9.7 0.00 0.00 0.00 75 1013.6
20260506130110 0 297 3.2 17.7 0.00 0.00 0.00 75 1013.6
20260506124551 0 270 3.2 24.1 0.00 0.00 0.00 76 1013.7
20260506123054 0 278 1.6 11.3 0.00 0.00 0.00 77 1013.6
20260506121552 -1 0 4.8 14.5 0.00 0.00 0.00 77 1013.3
20260506120054 -1 26 1.6 8.0 0.00 0.00 0.00 77 1013.2
20260506114604 -1 0 0.0 9.7 0.00 0.00 0.00 77 1012.9
20260506113052 -1 307 0.0 9.7 0.00 0.00 0.00 77 1012.7
20260506111547 -1 0 1.6 11.3 0.00 0.00 0.00 76 1012.7
20260506110054 -1 53 0.0 6.4 0.00 0.00 0.00 76 1012.7
20260506104610 -1 0 1.6 6.4 0.00 0.00 0.00 76 1012.7
20260506103055 -1 0 0.0 12.9 0.00 0.00 0.00 76 1012.6
20260506101551 -1 0 1.6 6.4 0.00 0.00 0.00 76 1012.7
20260506100054 -1 290 0.0 8.0 0.00 0.00 0.00 76 1012.8
20260506094550 -1 46 1.6 14.5 0.00 0.00 0.00 76 1012.6
20260506093052 -1 273 3.2 12.9 0.00 0.00 0.00 76 1012.7
20260506091548 -1 291 0.0 11.3 0.00 0.00 0.00 76 1012.7
20260506090051 -1 294 0.0 3.2 0.00 0.00 0.00 76 1012.5
20260506084555 -1 217 1.6 6.4 0.00 0.00 0.00 75 1012.6
20260506083051 -1 36 3.2 11.3 0.00 0.00 0.00 76 1012.5
20260506081557 -1 273 1.6 8.0 0.00 0.00 0.00 74 1012.5
20260506073057 -1 288 0.0 11.3 0.00 0.00 0.00 74 1012.4
20260506071621 -1 236 1.6 11.3 0.00 0.00 0.00 73 1012.5
20260506061556 0 0 1.6 9.7 0.00 0.00 0.00 71 1012.3
20260506044609 0 268 3.2 9.7 0.00 0.00 0.00 69 1012.0
20260506043056 0 43 1.6 16.1 0.00 0.00 0.00 68 1012.0
20260506041554 0 304 3.2 16.1 0.00 0.00 0.00 68 1012.3
20260506040053 0 30 1.6 16.1 0.00 0.00 0.00 69 1012.0
20260506034552 0 269 1.6 14.5 0.00 0.00 0.00 68 1012.2